Location: Watson Lake
(60.1170°N, 128.8000°W)
Time: 05:59:38
(UTC-07:00)

Daily predictions for brighter satellites

Satellite Brightness Start Highest point End
(mag) Time Altitude Azimuth Time Altitude Azimuth Time Altitude Azimuth
Spot 2 4.3 00:00:32 10° NNE 00:05:06 81° ESE 00:09:57 10° SSW
Cosmos 1818 3.8 00:01:03 10° WNW 00:06:35 80° NNE 00:12:05 10° ESE
Cosmos 1544 3.3 00:02:59 10° NNW 00:06:46 72° ENE 00:10:32 10° SSE
Cosmos 1943 3.4 00:05:41 10° SSW 00:11:15 57° ESE 00:16:51 10° NE
Cosmos 1689 Rocket 3.2 00:08:44 10° SE 00:11:47 41° ENE 00:14:52 10° N
SL-27 R/B 3.9 00:11:14 10° SSE 00:13:54 22° ESE 00:16:33 10° NE
Cosmos 2221 3.2 00:10:14 10° N 00:14:29 48° ENE 00:18:41 10° SE
Terra 3.2 00:11:20 10° SSW 00:15:36 32° W 00:19:53 10° NNW
Aureole 2 4.3 00:12:32 10° NW 00:15:58 72° WSW 00:18:58 10° SSE
Cosmos 2084 4.4 00:13:59 10° WNW 00:17:37 32° SW 00:21:22 10° SSE
Cosmos-2242 3.8 00:13:23 10° NNW 00:17:37 46° W 00:21:50 10° SSW
Cosmos 1943 Rocket 2.9 00:13:22 10° NW 00:18:34 43° WSW 00:23:47 10° S
Cosmos 1733 3.5 00:15:18 10° N 00:19:12 62° ENE 00:23:02 10° SSE
H-2A R/B 3.8 00:16:58 10° NE 00:20:13 24° E 00:23:24 10° SSE
Cosmos 1953 3.2 00:20:30 10° NNW 00:24:19 44° W 00:28:06 10° SSW
Cosmos 1470 2.8 00:22:52 10° NNW 00:26:49 88° ENE 00:30:39 10° SSE
Cosmos 2208 Rocket 4.4 00:21:55 10° NW 00:27:00 55° WSW 00:32:02 10° S
CZ-4C R/B 2.8 00:26:35 11° SSE 00:29:43 85° WSW 00:32:58 10° NNW
Landsat 5 3.6 00:26:04 10° SSE 00:29:58 67° ENE 00:34:02 10° NNW
SL-16 R/B 4.3 00:25:18 10° NW 00:30:17 30° NNE 00:35:16 10° ENE
Cosmos 407 Rocket 3.5 00:27:13 10° SSW 00:32:27 71° ESE 00:37:39 10° NE
Cosmos 1758 Rocket 4.2 00:29:19 10° SSW 00:33:38 55° WNW 00:37:57 10° N
Cosmos 1805 4.2 00:30:04 10° NNW 00:33:49 42° W 00:37:32 10° SSW
Lacrosse 5 rocket 1.5 00:30:35 10° WSW 00:34:34 53° S 00:38:47 10° E
Cosmos 2237 Rocket 4.1 00:29:27 10° W 00:34:37 35° NNW 00:39:48 10° NE
CZ-4B R/B 1.7 00:31:27 10° SSE 00:35:02 78° ENE 00:38:47 10° NNW
COSMOS 2455 2.9 00:29:52 10° SW 00:35:53 77° SE 00:41:56 10° NE
Cosmos 1656 Rocket 4.1 00:34:08 10° NW 00:39:42 54° WSW 00:45:09 10° SSE
ALOS 2 2.6 00:35:57 10° SSE 00:40:18 88° WSW 00:44:44 10° NNW
Cosmos 1656 4.5 00:35:04 10° NW 00:40:41 53° NE 00:46:17 10° ESE
Lacrosse 4 Rocket 1.8 00:40:16 10° SSW 00:44:08 44° SE 00:48:06 10° NE
Cosmos 1553 Rocket 4.3 00:38:15 10° N 00:44:30 64° ENE 00:50:49 10° SSE
Cosmos 2322 Rocket 4.1 00:40:08 10° NW 00:45:11 32° NNE 00:50:13 10° E
Cosmos 2369 Rocket 4.3 00:42:25 10° WNW 00:45:47 16° W 00:49:09 10° SW
Cosmos 1763 Rocket 4.1 00:42:11 10° NNW 00:47:28 57° NE 00:52:43 10° SE
Cosmos 2369 3.9 00:41:57 10° NW 00:47:40 79° NE 00:53:20 10° SE
CZ-2C R/B 4.3 00:43:54 10° NE 00:48:22 24° E 00:52:45 10° SE
NOSS 2 (F) 4.3 00:46:04 10° WNW 00:48:51 83° SSW 00:51:47 10° ESE
Cosmos 1954 Rocket 4.1 00:45:19 10° SSW 00:50:34 64° ESE 00:55:50 10° NE
ATLAS 3B R/B 3.1 00:43:58 10° SSW 00:51:22 55° SE 00:58:31 10° ENE
CZ-2C R/B 4.2 00:47:03 10° SE 00:52:17 44° ENE 00:57:45 10° NNW
Genesis I 3.4 00:49:07 10° WNW 00:53:11 80° NNE 00:57:11 10° ESE
Meteor 1-16 Rocket 4.3 00:52:13 10° NNW 00:57:44 81° WSW 01:03:15 11° S
H-2A R/B 4.1 00:55:15 10° SW 00:58:35 18° W 01:01:59 10° NW
SL-16 R/B 3.9 00:55:34 10° W 01:00:51 38° NNW 01:06:09 10° NE
ISS -1.4 01:00:51 12° SSE 01:01:19 13° SSE 01:02:50 10° SE
Cosmos 1346 Rocket 4.5 00:59:21 10° SW 01:02:52 31° WNW 01:06:27 10° N
Cosmos 1092 Rocket 4.1 00:57:43 10° S 01:04:04 88° ESE 01:10:24 10° NNE
Cosmos 1741 Rocket 4.5 00:59:31 10° S 01:04:32 48° ESE 01:09:40 10° NE
S3M 4.1 01:03:07 10° NNW 01:09:29 85° ENE 01:15:40 10° SSE
CZ-4C R/B 4.1 01:06:45 10° SE 01:10:02 16° ESE 01:13:31 10° ENE
Cosmos 2278 3.7 01:05:54 10° NW 01:11:35 76° SW 01:17:14 10° SSE
Cosmos 1340 2.8 01:08:08 12° S 01:11:39 64° ESE 01:15:26 10° NNE
COSMOS 2406 3.6 01:08:26 10° SSW 01:13:57 51° ESE 01:19:32 10° NE
Cosmos 1655 Rocket 4.2 01:10:26 11° S 01:16:33 68° E 01:22:46 10° NNE
Cosmos 2360 Rocket 4.4 01:12:44 10° NW 01:17:39 29° NNE 01:22:33 10° ENE
Cosmos 1980 Rocket 3.1 01:12:29 10° NW 01:18:00 52° NE 01:23:31 10° ESE
Nadezhda 4 Rocket 4.4 01:12:16 10° SSW 01:18:34 66° WNW 01:24:54 10° NNE
USA 238 DEB 4.3 01:14:44 10° SSW 01:21:18 42° SE 01:27:51 10° ENE
USA 238 4.3 01:14:50 10° SSW 01:21:24 42° SE 01:27:56 10° ENE
Cosmos 1707 2.8 01:19:34 12° S 01:23:15 78° ESE 01:27:13 10° NNE
Cosmos 1151 Rocket 4.1 01:19:53 10° N 01:23:59 41° ENE 01:28:03 10° SE
Aureole 1 Rocket 3.9 01:20:33 10° NNW 01:24:05 45° NE 01:28:35 10° ESE
Cosmos 1850 Rocket 4.1 01:19:03 10° SSW 01:24:14 64° ESE 01:29:25 10° NE
Cosmos 841 Rocket 3.6 01:19:05 10° NNW 01:24:22 82° ENE 01:29:39 10° SE
COSMOS 2487 3.3 01:22:19 12° S 01:25:19 39° ESE 01:28:44 10° NE
MOS 1-B Rocket 4.4 01:20:49 10° SSE 01:28:27 87° ENE 01:34:56 10° NNW
ATLAS CENTAUR R/B 2.9 01:28:31 10° W 01:33:27 50° N 01:38:13 10° ENE
Cosmos 1766 Rocket 3.9 01:33:58 12° S 01:38:06 62° E 01:42:34 10° NNE
Cosmos 2228 Rocket 3.2 01:35:04 10° NNW 01:39:31 72° W 01:43:39 11° S
Cosmos 1697 Rocket 2.9 01:34:25 10° NW 01:40:08 81° NE 01:45:51 10° SE
Lacrosse 5 2.0 01:37:19 10° W 01:42:13 50° SSW 01:47:06 10° SE
Cosmos 1328 Rocket 3.6 01:38:24 10° NNW 01:42:47 83° WSW 01:47:00 11° S
Helios 1A Rocket 3.0 01:38:54 10° NNE 01:43:00 74° ESE 01:46:49 12° SSW
Cosmos 1689 Rocket 4.0 01:41:31 10° SSW 01:44:10 23° W 01:46:51 10° NW
Cosmos 2082 Rocket 4.1 01:40:38 10° SE 01:44:16 18° E 01:47:56 10° ENE
Cosmos 1814 Rocket 4.5 01:41:08 10° NW 01:46:10 48° WSW 01:51:04 11° S
Meteor 1-24 Rocket 4.0 01:41:55 11° S 01:47:46 77° ESE 01:53:40 10° NNE
SS 1 4.5 01:45:46 10° WNW 01:48:33 56° SW 01:51:27 10° SE
SL-27 R/B 3.0 01:45:39 10° SW 01:48:57 53° NW 01:52:17 10° NNE
Cosmos 1818 4.2 01:44:49 10° WNW 01:49:56 40° SW 01:54:59 10° SSE
Cosmos 1515 Rocket 3.6 01:47:05 10° NNW 01:51:32 85° W 01:55:56 10° S
Cosmos 2221 3.8 01:48:06 10° NNW 01:51:58 31° W 01:55:47 10° SSW
Meteor 2-5 Rocket 4.0 01:47:32 10° SSW 01:53:24 71° WNW 01:59:12 10° NNE
Meteor 2-2 Rocket 4.3 01:48:55 10° NNW 01:54:38 88° ENE 02:00:23 10° SSE
Cosmos 1943 4.1 01:49:56 10° WSW 01:55:29 51° NW 02:01:05 10° NE
Okean 3 Rocket 4.2 01:51:13 10° SSW 01:55:32 52° WNW 01:59:54 10° N
Cosmos 1140 Rocket 3.7 01:50:44 10° SW 01:56:00 75° NW 02:01:17 10° NNE
H-2A R/B 2.8 01:52:16 10° NNE 01:56:08 56° WNW 01:59:54 10° SW
BREEZE-M DEB (TANK) 4.3 01:47:59 10° WSW 01:57:38 29° S 02:01:15 10° ESE
Cosmos 2026 Rocket 4.1 01:52:38 10° SSW 01:58:43 73° WNW 02:04:49 10° NNE
Cosmos 1943 Rocket 4.4 01:59:56 10° W 02:00:57 10° W 02:01:58 10° WSW
EROS-A1 4.2 01:58:44 13° S 02:00:59 73° WSW 02:03:34 10° NNW
Landsat 4 4.3 02:00:04 10° SE 02:03:44 55° ENE 02:07:25 10° NNW
Cosmos 1076 Rocket 3.6 02:01:24 11° SSW 02:05:31 78° WNW 02:09:47 10° NNE
Cosmos 1932 4.5 02:00:21 10° SW 02:06:32 72° SE 02:12:49 10° ENE
Cosmos 1674 4.2 02:03:46 10° SSE 02:06:58 27° E 02:10:13 10° NNE
CZ-4B R/B 3.7 02:05:56 10° SW 02:08:24 17° W 02:10:54 10° NW
Cosmos 1726 3.9 02:05:29 10° N 02:08:47 30° ENE 02:12:05 10° SE
Lacrosse 5 rocket 1.5 02:09:30 10° W 02:13:35 52° SSW 02:17:53 10° ESE
SL-16 R/B 3.1 02:09:56 10° NW 02:15:33 55° NE 02:21:08 10° ESE
ASTEX 1 4.0 02:13:25 10° NNE 02:18:19 51° E 02:23:10 10° SSE
Cosmos 1378 3.3 02:15:03 11° SSW 02:18:41 76° WNW 02:22:31 10° NNE
COSMOS 2455 3.8 02:16:19 10° W 02:22:13 53° NNW 02:28:08 10° ENE
Cosmos 371 Rocket 4.0 02:17:35 10° NNW 02:22:27 58° NE 02:27:15 10° SE
Lacrosse 4 Rocket 2.2 02:18:51 10° WSW 02:22:52 52° NNW 02:26:59 10° NE
Cosmos 1656 4.0 02:18:54 10° NW 02:24:28 54° WSW 02:30:00 10° SSE
Cosmos 1607 4.1 02:19:15 10° SW 02:25:25 64° SE 02:31:33 10° ENE
COS B Rocket 3.4 02:25:50 10° NNE 02:28:14 34° E 02:30:26 10° SSE
Cosmos 1763 Rocket 4.2 02:24:15 10° NW 02:29:13 41° WSW 02:34:10 10° S
CZ-2C R/B 2.8 02:23:45 10° NNE 02:29:26 88° ESE 02:34:59 10° SSW
Cosmos 2322 Rocket 2.7 02:24:34 10° NW 02:30:14 64° NE 02:35:50 10° SE
Genesis I 4.1 02:27:07 10° WNW 02:30:40 30° SW 02:34:09 10° SSE
Cosmos 614 Rocket 4.4 02:26:29 10° SW 02:31:39 64° NW 02:36:53 10° NNE
CZ-2C R/B 3.6 02:26:43 10° S 02:32:06 54° W 02:37:46 10° NNW
Elektron 3 4.3 02:28:18 10° SW 02:32:46 54° SSE 02:35:40 10° ENE
Cosmos 1908 3.5 02:31:43 10° NNW 02:35:31 54° W 02:39:16 10° S
ISS -1.8 02:34:32 10° SW 02:36:55 19° S 02:39:19 10° SE
Cosmos 1707 Rocket 3.8 02:32:36 10° NNW 02:37:02 75° ENE 02:41:24 10° SSE
Cosmos 1408 Rocket 4.4 02:33:06 10° SW 02:37:24 45° WNW 02:41:45 10° N
Cosmos 405 Rocket 3.0 02:33:37 10° SSW 02:37:27 62° WNW 02:41:14 10° NNE
Cosmos 1437 Rocket 2.9 02:35:59 10° NNW 02:39:58 61° W 02:43:50 10° S
USA 32 4.1 02:35:01 10° N 02:40:20 84° W 02:45:36 10° S
Cosmos 2315 Rocket 4.2 02:34:27 10° NNW 02:40:46 65° W 02:47:00 10° S
NOSS 3-2 (A) 4.0 02:35:43 10° SSW 02:41:48 50° SE 02:48:31 10° ENE
Cosmos 540 Rocket 3.5 02:36:48 10° NW 02:41:58 70° WSW 02:47:07 10° SSE
ATLAS 3B R/B 3.1 02:34:24 10° WSW 02:42:04 80° NNW 02:49:20 10° ENE
Cosmos 2219 Rocket 4.5 02:37:25 10° NW 02:42:22 30° NNE 02:47:18 10° ENE
In-Cosmos 22 4.3 02:43:18 10° SSW 02:48:53 86° WNW 02:54:38 10° NNE
SL-16 R/B 3.7 02:43:14 10° SE 02:49:09 45° NE 02:55:05 10° NNW
CZ-4C R/B 2.7 02:51:40 10° SSW 02:57:07 51° SE 03:03:20 10° ENE
Cosmos 1503 Rocket 4.5 02:53:01 10° S 02:58:14 54° ESE 03:03:26 10° NE
COSMOS 2406 3.9 02:52:42 10° WSW 02:58:21 56° NW 03:04:03 10° NE
Cosmos 1300 2.7 02:54:37 10° NNW 02:58:30 84° W 03:02:21 10° S
COSMOS 2487 3.8 02:57:41 10° WSW 03:01:03 35° NW 03:04:26 10° NNE
USA 215 4.5 02:55:50 10° E 03:01:09 26° SE 03:06:27 10° S
USA 161 3.0 02:59:22 10° SE 03:01:29 28° ENE 03:03:38 10° N
Cosmos 1151 Rocket 3.8 02:57:36 10° NNW 03:01:34 36° W 03:05:29 10° SSW
Cosmos 1743 Rocket 4.2 02:57:34 10° SW 03:01:53 50° WNW 03:06:16 10° N
Cosmos 1980 Rocket 2.4 02:56:39 10° NW 03:02:08 55° WSW 03:07:38 10° SSE
PSLV R/B 4.2 02:58:06 10° NNE 03:02:47 60° ESE 03:07:20 10° S
Cosmos 2360 Rocket 3.2 02:57:16 10° NW 03:02:48 53° NE 03:08:19 10° ESE
Timation 2 Rocket 4.4 02:57:18 10° SSW 03:04:08 69° SE 03:10:50 10° NE
ERS-2 3.4 03:01:00 10° NNE 03:04:29 35° E 03:07:56 10° SSE
Cosmos 405 3.5 03:02:24 10° NNW 03:05:52 46° W 03:09:19 10° S
Cosmos 1441 Rocket 3.4 03:01:54 10° S 03:05:53 80° ESE 03:09:52 10° NNE
Nadezhda 1 Rocket 4.1 03:01:24 10° NNW 03:07:42 87° ENE 03:13:51 10° SSE
Aureole 1 Rocket 3.8 03:05:13 10° NW 03:08:48 36° WSW 03:13:19 10° S
Cosmos 332 Rocket 3.9 03:05:08 10° NW 03:09:53 58° WSW 03:14:35 10° SSE
Cosmos 2266 Rocket 4.4 03:04:45 10° SSW 03:11:07 62° WNW 03:17:30 10° N
USA 238 DEB 3.9 03:04:45 10° WSW 03:11:52 90° SE 03:18:58 10° ENE
USA 238 3.9 03:04:50 10° WSW 03:11:58 89° SE 03:19:03 10° ENE
ATLAS CENTAUR R/B 2.4 03:08:13 10° WNW 03:13:12 62° NNE 03:17:55 10° E
Cosmos 1437 4.2 03:10:30 10° SSE 03:13:34 34° E 03:16:39 10° NNE
Cosmos 2344 4.3 03:08:51 10° SSW 03:16:30 54° SE 03:25:55 10° ENE
SL-08 R/B 3.4 03:12:02 10° S 03:16:53 74° WSW 03:21:51 10° NNW
Cosmos 1500 Rocket 4.2 03:16:27 10° SW 03:20:38 46° WNW 03:24:51 10° N
CZ-2D R/B 4.3 03:17:15 10° NE 03:21:02 20° E 03:24:48 10° SE
Cosmos 1538 Rocket 4.1 03:16:54 10° NW 03:22:04 65° WSW 03:27:14 10° SSE
NPP 4.3 03:17:24 10° NNE 03:22:42 53° E 03:27:58 10° S
